Flag for United Kingdom Weather past 2 weeks in Canterbury, England, United Kingdom

Now
51 °F

Cool.


Feels Like: 50 °F
Forecast: N/A
Wind: 5 mph from Northwest

Location: Manston

Current Time: Mar 27, 2015 at 5:26:57 PM

Latest Report: Mar 27, 2015 at 4:00 PM


Visibility: 19 mi

Pressure: 30.15 "Hg

Humidity: 45%

Dew point: 30 °F

Location of CanterburyLocation

Historic Weather in Canterbury — Graph

°F

Canterbury temperature yesterday

Maximum temperature yesterday: 51 °F (at 2:00 PM)
Minimum temperature yesterday: 35 °F (at 2:00 AM)
Average temperature yesterday: 44 °F

Past Weeks' High & Low Weather Summary

 TemperatureHumidityPressure
High51 °F (Mar 12, 4:00 PM)100% (Mar 17, 4:00 AM)30.50 "Hg (Mar 17, 4:00 AM)
Low32 °F (Mar 23, 6:00 AM)45% (Mar 27, 4:00 PM)29.58 "Hg (Mar 26, 12:00 PM)
Average42 °F84%30.19 "Hg
* Reported Mar 12 4:00 PM — Mar 27 4:00 PM, Canterbury, Weather by CustomWeather, © 2015

Note: Actual official high and low records may vary slightly from our data, if they occured in-between our weather recording intervals... More about our weather records

Advertising

Canterbury weather history for previous 24 hours

 ConditionsComfort  
Time TempWeatherWind HumidityBarometerVisibility
4:00 PM
Fri, Mar 27
51 °FCool.5 mph45%30.15 "Hg19 mi
3:00 PM51 °FCool.10 mph49%30.16 "Hg14 mi
2:00 PM50 °FCool.13 mph50%30.16 "Hg17 mi
12:00 PM48 °FCool.15 mph56%30.14 "Hg9 mi
11:00 AM46 °FCool.14 mph68%30.14 "Hg10 mi
10:00 AM45 °FCool.14 mph71%30.14 "Hg12 mi
9:00 AM44 °FQuite cool.14 mph71%30.12 "Hg12 mi
8:00 AM43 °FQuite cool.14 mph76%30.11 "Hg12 mi
7:00 AM41 °FQuite cool.13 mph79%30.10 "Hg11 mi
6:00 AM39 °FChilly.13 mph81%30.06 "Hg14 mi
5:00 AM40 °FChilly.13 mph78%30.04 "Hg15 mi
4:00 AM40 °FQuite cool.13 mph79%30.01 "Hg13 mi
2:00 AM42 °FQuite cool.15 mph73%29.97 "Hg16 mi
1:00 AM43 °FQuite cool.17 mph71%29.96 "Hg16 mi
12:00 AM44 °FQuite cool.17 mph71%29.93 "Hg18 mi
11:00 PM
Thu, Mar 26
45 °FQuite cool.21 mph65%29.91 "Hg19 mi
10:00 PM44 °FQuite cool.17 mph67%29.88 "Hg19 mi
9:00 PM46 °FCool.15 mph62%29.85 "Hg25 mi
8:00 PM46 °FCool.17 mph62%29.82 "Hg22 mi
7:00 PM47 °FCool.14 mph62%29.79 "Hg22 mi
6:00 PM48 °FCool.17 mph64%29.75 "Hg15 mi
5:00 PM51 °FCool.13 mph67%29.70 "Hg17 mi
Weather by CustomWeather, © 2015

See weather overviewHow to use our weather pages